Weather History for Dublin, VA

Change the Weather History Date:

Wednesday, February 6, 2013

  Actual Average (KBCB) Record (KBCB)
Temperature  
Mean Temperature 40 °F 33 °F  
Max Temperature 51 °F 43 °F 67 °F (1991)
Min Temperature 28 °F 22 °F -5 °F (1996)
Degree Days  
Heating Degree Days 26 32  
Month to date heating degree days 195  
Since 1 July heating degree days 3382  
Cooling Degree Days 0 0  
Month to date cooling degree days 0  
Year to date cooling degree days 0  
Moisture  
Dew Point 27 °F    
Average Humidity 61    
Maximum Humidity 100    
Minimum Humidity 26    
Precipitation  
Precipitation 0.00 in 0.10 in 1.70 in (2004)
Month to date precipitation 0.60  
Year to date precipitation 3.68  
Snow  
Snow 0.00 in - - ()
Month to date snowfall  
Since 1 July snowfall  
Snow Depth -    
Sea Level Pressure  
Sea Level Pressure 30.13 in    
Wind  
Wind Speed 6 mph (WNW)    
Max Wind Speed 16 mph    
Max Gust Speed 24 mph    
Visibility 10 miles    
Events      
T = Trace of Precipitation, MM = Missing Value Source: NWS Daily Summary

Daily Weather History Graph

Daily Weather History Graph

Search for Another Location

Airport:

Trip Planner

Search our weather history database for the weather conditions in past years. The results will help you decide how hot, cold, wet, or windy it might be!

Date:

Astronomy

Feb. 06, 2013 Rise Set
Actual Time 7:20 AM EST 5:53 PM EST
Civil Twilight 6:53 AM EST 6:20 PM EST
Nautical Twilight 6:22 AM EST 6:51 PM EST
Astronomical Twilight 5:52 AM EST 7:21 PM EST
Moon 4:00 AM EST (2/6) 2:12 PM EST (2/6)
Length of Visible Light 11h 26m
Length of Day
10h 32m
Waning Crescent, 17% of the Moon is Illuminated
Feb 6
Waning Crescent
Feb 10
New
Feb 17
First Quarter
Feb 25
Full
Mar 4
Last Quarter

Hourly Weather History & Observations

Time (EST) Temp. Windchill Dew Point Humidity Pressure Visibility Wind Dir Wind Speed Gust Speed Precip Events Conditions
12:15 AM 33.8 °F 29.6 °F 33.8 °F 100% 29.95 in 10.0 mi SSW 4.6 mph - N/A   Scattered Clouds
12:35 AM 33.8 °F - 33.8 °F 100% 29.95 in 10.0 mi Calm Calm - N/A   Mostly Cloudy
12:55 AM 35.6 °F 32.8 °F 33.8 °F 93% 29.96 in 10.0 mi SW 3.5 mph - N/A   Mostly Cloudy
1:15 AM 35.6 °F 30.7 °F 33.8 °F 93% 29.96 in 10.0 mi SW 5.8 mph - N/A   Mostly Cloudy
1:35 AM 37.4 °F 33.8 °F 33.8 °F 87% 29.96 in 10.0 mi WSW 4.6 mph - N/A   Scattered Clouds
2:15 AM 39.2 °F 35.0 °F 32.0 °F 75% 29.97 in 10.0 mi West 5.8 mph - N/A   Scattered Clouds
2:35 AM 39.2 °F 37.0 °F 32.0 °F 75% 29.98 in 10.0 mi West 3.5 mph - N/A   Mostly Cloudy
2:55 AM 41.0 °F 39.0 °F 32.0 °F 70% 29.98 in 10.0 mi West 3.5 mph - N/A   Mostly Cloudy
3:15 AM 41.0 °F 37.1 °F 32.0 °F 70% 29.99 in 10.0 mi NW 5.8 mph - N/A   Overcast
3:35 AM 41.0 °F 34.7 °F 32.0 °F 70% 29.99 in 10.0 mi WNW 10.4 mph 17.3 mph N/A   Overcast
3:55 AM 42.8 °F 35.8 °F 32.0 °F 66% 30.00 in 10.0 mi WNW 13.8 mph 24.2 mph N/A   Mostly Cloudy
4:15 AM 41.0 °F 35.2 °F 32.0 °F 70% 30.01 in 10.0 mi WNW 9.2 mph - N/A   Mostly Cloudy
4:35 AM 41.0 °F 33.1 °F 30.2 °F 65% 30.02 in 10.0 mi WNW 15.0 mph 23.0 mph N/A   Mostly Cloudy
4:55 AM 39.2 °F 32.0 °F 30.2 °F 70% 30.02 in 10.0 mi WNW 11.5 mph - N/A   Mostly Cloudy
5:15 AM 39.2 °F 32.0 °F 30.2 °F 70% 30.03 in 10.0 mi WNW 11.5 mph - N/A   Overcast
5:35 AM 39.2 °F 31.2 °F 28.4 °F 65% 30.04 in 10.0 mi West 13.8 mph 20.7 mph N/A   Overcast
5:55 AM 39.2 °F 32.5 °F 28.4 °F 65% 30.05 in 10.0 mi West 10.4 mph 16.1 mph N/A   Overcast
6:15 AM 39.2 °F 30.5 °F 28.4 °F 65% 30.06 in 10.0 mi WNW 16.1 mph 23.0 mph N/A   Mostly Cloudy
6:35 AM 37.4 °F 29.8 °F 28.4 °F 70% 30.07 in 10.0 mi WNW 11.5 mph 17.3 mph N/A   Scattered Clouds
6:55 AM 37.4 °F 30.3 °F 28.4 °F 70% 30.08 in 10.0 mi WNW 10.4 mph - N/A   Clear
7:15 AM 37.4 °F 32.1 °F 28.4 °F 70% 30.09 in 10.0 mi WNW 6.9 mph - N/A   Scattered Clouds
7:35 AM 37.4 °F 33.8 °F 28.4 °F 70% 30.10 in 10.0 mi WNW 4.6 mph - N/A   Scattered Clouds
7:55 AM 37.4 °F 32.8 °F 28.4 °F 70% 30.11 in 10.0 mi NW 5.8 mph - N/A   Scattered Clouds
8:15 AM 37.4 °F 32.8 °F 28.4 °F 70% 30.12 in 10.0 mi NW 5.8 mph - N/A   Clear
8:35 AM 39.2 °F 33.6 °F 28.4 °F 65% 30.13 in 10.0 mi NW 8.1 mph - N/A   Clear
8:55 AM 39.2 °F 33.0 °F 28.4 °F 65% 30.14 in 10.0 mi NW 9.2 mph - N/A   Clear
9:15 AM 39.2 °F 33.0 °F 28.4 °F 65% 30.13 in 10.0 mi WNW 9.2 mph - N/A   Clear
9:35 AM 41.0 °F 35.8 °F 28.4 °F 61% 30.15 in 10.0 mi WNW 8.1 mph - N/A   Clear
9:55 AM 41.0 °F 37.1 °F 28.4 °F 61% 30.16 in 10.0 mi West 5.8 mph - N/A   Scattered Clouds
10:15 AM 42.8 °F 37.0 °F 28.4 °F 57% 30.17 in 10.0 mi West 10.4 mph - N/A   Clear
10:35 AM 42.8 °F 39.3 °F 28.4 °F 57% 30.17 in 10.0 mi WNW 5.8 mph - N/A   Clear
10:55 AM 42.8 °F 38.6 °F 28.4 °F 57% 30.18 in 10.0 mi West 6.9 mph - N/A   Clear
11:35 AM 44.6 °F 41.4 °F 26.6 °F 49% 30.18 in 10.0 mi NNW 5.8 mph - N/A   Clear
11:55 AM 44.6 °F 42.2 °F 26.6 °F 49% 30.18 in 10.0 mi WNW 4.6 mph - N/A   Clear
12:15 PM 46.4 °F 45.2 °F 26.6 °F 46% 30.17 in 10.0 mi West 3.5 mph - N/A   Clear
12:35 PM 46.4 °F 44.3 °F 26.6 °F 46% 30.17 in 10.0 mi West 4.6 mph - N/A   Clear
12:55 PM 46.4 °F 44.3 °F 24.8 °F 43% 30.17 in 10.0 mi West 4.6 mph - N/A   Clear
1:15 PM 48.2 °F - 24.8 °F 40% 30.17 in 10.0 mi West 6.9 mph - N/A   Clear
1:35 PM 48.2 °F - 24.8 °F 40% 30.16 in 10.0 mi West 8.1 mph - N/A   Clear
1:55 PM 48.2 °F - 21.2 °F 34% 30.16 in 10.0 mi WSW 6.9 mph - N/A   Clear
2:15 PM 50.0 °F - 21.2 °F 32% 30.16 in 10.0 mi West 8.1 mph - N/A   Clear
2:35 PM 50.0 °F - 21.2 °F 32% 30.16 in 10.0 mi WNW 6.9 mph - N/A   Clear
2:55 PM 50.0 °F - 19.4 °F 30% 30.16 in 10.0 mi WNW 6.9 mph - N/A   Clear
3:15 PM 50.0 °F - 19.4 °F 30% 30.16 in 10.0 mi WNW 8.1 mph - N/A   Clear
3:35 PM 51.8 °F - 17.6 °F 26% 30.16 in 10.0 mi WNW 5.8 mph - N/A   Clear
3:55 PM 51.8 °F - 19.4 °F 28% 30.16 in 10.0 mi West 3.5 mph - N/A   Clear
4:15 PM 51.8 °F - 17.6 °F 26% 30.16 in 10.0 mi NW 4.6 mph - N/A   Clear
4:35 PM 50.0 °F - 17.6 °F 28% 30.17 in 10.0 mi WNW 5.8 mph - N/A   Clear
4:55 PM 48.2 °F - 19.4 °F 32% 30.17 in 10.0 mi WNW 8.1 mph - N/A   Clear
5:15 PM 48.2 °F - 19.4 °F 32% 30.18 in 10.0 mi WNW 4.6 mph - N/A   Clear
5:35 PM 46.4 °F 44.3 °F 19.4 °F 34% 30.18 in 10.0 mi NW 4.6 mph - N/A   Clear
5:55 PM 44.6 °F - 19.4 °F 37% 30.19 in 10.0 mi Calm Calm - N/A   Clear
6:15 PM 42.8 °F 39.3 °F 21.2 °F 42% 30.20 in 10.0 mi SW 5.8 mph - N/A   Clear
6:35 PM 39.2 °F 34.2 °F 26.6 °F 61% 30.21 in 10.0 mi WSW 6.9 mph - N/A   Clear
6:55 PM 39.2 °F 35.0 °F 26.6 °F 61% 30.21 in 10.0 mi WSW 5.8 mph - N/A   Clear
7:15 PM 39.2 °F - 26.6 °F 61% 30.22 in 10.0 mi Calm Calm - N/A   Clear
7:35 PM 39.2 °F 37.0 °F 26.6 °F 61% 30.23 in 10.0 mi WNW 3.5 mph - N/A   Clear
7:55 PM 37.4 °F 34.9 °F 26.6 °F 65% 30.23 in 10.0 mi NW 3.5 mph - N/A   Clear
8:15 PM 39.2 °F 37.0 °F 26.6 °F 61% 30.23 in 10.0 mi West 3.5 mph - N/A   Clear
8:35 PM 39.2 °F - 26.6 °F 61% 30.22 in 10.0 mi Calm Calm - N/A   Clear
8:55 PM 35.6 °F 32.8 °F 26.6 °F 70% 30.22 in 10.0 mi ESE 3.5 mph - N/A   Clear
9:15 PM 37.4 °F - 26.6 °F 65% 30.21 in 10.0 mi Calm Calm - N/A   Clear
9:35 PM 33.8 °F - 26.6 °F 75% 30.22 in 10.0 mi Calm Calm - N/A   Clear
9:55 PM 33.8 °F - 26.6 °F 75% 30.21 in 10.0 mi Calm Calm - N/A   Clear
10:15 PM 32.0 °F - 24.8 °F 75% 30.22 in 10.0 mi Calm Calm - N/A   Clear
10:35 PM 30.2 °F - 24.8 °F 80% 30.22 in 10.0 mi Calm Calm - N/A   Clear
10:55 PM 30.2 °F 25.4 °F 26.6 °F 86% 30.25 in 10.0 mi West 4.6 mph - N/A   Clear
11:15 PM 28.4 °F - 24.8 °F 86% 30.26 in 10.0 mi Calm Calm - N/A   Clear
11:35 PM 30.2 °F - 26.6 °F 86% 30.26 in 10.0 mi Calm Calm - N/A   Clear
11:55 PM 30.2 °F 26.7 °F 26.6 °F 86% 30.26 in 10.0 mi East 3.5 mph - N/A   Clear